Location: Newark
(13.6797°N, 8.5297°E)
Time: 07:24:25
(UTC+00:00)

Courier 1B Rocket - Pass Details

Date: 29 January 2020
Orbit: 920 x 1202 km, 28.2° (Epoch: 20 February)

Event Time Altitude Azimuth Distance (km) Brightness Sun altitude
Rises 04:47:46 0° 212° (SSW) 4,029 8.0 -16.1°
Reaches altitude 10° 04:51:12 10° 199° (SSW) 3,095 7.6 -15.3°
Maximum altitude 04:57:10 24° 148° (SSE) 2,242 7.5 -13.9°
Drops below altitude 10° 05:03:10 10° 98° (E) 3,123 9.1 -12.5°
Sets 05:06:38 0° 85° (E) 4,072 9.7 -11.7°
